This demonstration page uses our WeatherBlox Daily Observations layout. Learn more.

Left ArrowRight Arrow

38.80484, -77.04692

Hourly Observations for May 4, 2015

Temp ( °F °C ) Dew Point ( °F °C ) Humidity (%) Winds ( mph kmh ) Pressure ( in mb ) Visibility ( mi km ) Precip ( " mm )
12:52 am 00:52 Clear 65 18.3 49 9.4 56 56 S 3 6 30.17 1022 10 16 N/A
1:52 am 01:52 Partly Cloudy 65 18.3 48 8.9 54 54 S 3 6 30.17 1022 10 16 N/A
2:52 am 02:52 Mostly Cloudy 62 16.7 52 11.1 70 70 SSW 5 7 30.17 1022 10 16 N/A
3:52 am 03:52 Mostly Cloudy 61 16.1 50 10 67 67 SSW 3 6 30.18 1022 10 16 N/A
4:52 am 04:52 Mostly Cloudy 60 15.6 50 10 70 70 SSW 5 7 30.19 1022 10 16 N/A
5:52 am 05:52 Partly Cloudy 58 14.4 50 10 75 75 SSW 5 7 30.20 1023 10 16 N/A
6:52 am 06:52 Partly Cloudy 59 15 51 10.6 75 75 SSW 6 9 30.22 1023 10 16 N/A
7:52 am 07:52 Mostly Sunny 62 16.7 51 10.6 67 67 S 6 9 30.24 1024 10 16 N/A
8:52 am 08:52 Mostly Sunny 66 18.9 52 11.1 61 61 S 8 13 30.24 1024 10 16 N/A
9:52 am 09:52 Mostly Sunny 70 21.1 53 11.7 55 55 S 10 17 30.24 1024 10 16 N/A
10:52 am 10:52 Sunny 73 22.8 54 12.2 51 51 S 13 20 30.24 1024 10 16 N/A
11:52 am 11:52 Mostly Sunny 77 25 56 13.3 48 48 S 12 19 30.24 1024 10 16 N/A
12:52 pm 12:52 Mostly Sunny 81 27.2 53 11.7 38 38 SSW 18 30 30.22 1023 10 16 N/A
1:52 pm 13:52 Mostly Sunny 84 28.9 51 10.6 32 32 S 12 19 30.21 1023 10 16 N/A
2:52 pm 14:52 Mostly Sunny 82 27.8 53 11.7 37 37 S 17 28 30.19 1022 10 16 N/A
3:52 pm 15:52 Mostly Sunny 83 28.3 52 11.1 34 34 S 13 20 30.17 1022 10 16 N/A
4:52 pm 16:52 Mostly Sunny 83 28.3 52 11.1 34 34 S 14 22 30.15 1021 10 16 N/A
5:52 pm 17:52 Partly Cloudy 82 27.8 53 11.7 37 37 S 10 17 30.15 1021 10 16 N/A
6:52 pm 18:52 Partly Cloudy 79 26.1 55 12.8 44 44 S 12 19 30.15 1021 10 16 N/A
7:52 pm 19:52 Partly Cloudy 76 24.4 56 13.3 50 50 S 10 17 30.15 1021 10 16 N/A
8:52 pm 20:52 Partly Cloudy 74 23.3 55 12.8 52 52 S 9 15 30.17 1022 10 16 N/A
9:52 pm 21:52 Partly Cloudy 72 22.2 56 13.3 57 57 S 9 15 30.19 1022 10 16 N/A
10:52 pm 22:52 Mostly Clear 71 21.7 58 14.4 63 63 S 10 17 30.19 1022 10 16 N/A
11:52 pm 23:52 Mostly Cloudy 71 21.7 58 14.4 63 63 S 9 15 30.20 1023 10 16 N/A

Powered by AerisWeather